TimeMST,TemperatureF,Dew PointF,Humidity,Sea Level PressureIn,VisibilityMPH,Wind Direction,Wind SpeedMPH,Gust SpeedMPH,PrecipitationIn,Events,Conditions,WindDirDegrees,DateUTC
12:15 AM,18.9,12.6,76,30.30,10.0,Calm,Calm,-,N/A,,Clear,0,2012-11-27 07:15:00
12:35 AM,19.8,12.9,75,30.30,10.0,Calm,Calm,-,N/A,,Clear,0,2012-11-27 07:35:00
12:55 AM,19.6,13.1,76,30.30,10.0,Calm,Calm,-,N/A,,Clear,0,2012-11-27 07:55:00
1:15 AM,19.4,12.7,75,30.29,10.0,Calm,Calm,-,N/A,,Clear,0,2012-11-27 08:15:00
1:35 AM,18.0,12.2,78,30.30,10.0,Calm,Calm,-,N/A,,Clear,0,2012-11-27 08:35:00
1:55 AM,17.8,11.8,78,30.30,10.0,Calm,Calm,-,N/A,,Clear,0,2012-11-27 08:55:00
2:15 AM,16.9,10.9,77,30.30,10.0,Calm,Calm,-,N/A,,Clear,0,2012-11-27 09:15:00
2:35 AM,18.7,12.0,75,30.30,10.0,Calm,Calm,-,N/A,,Clear,0,2012-11-27 09:35:00
2:55 AM,16.7,11.8,81,30.30,10.0,Calm,Calm,-,N/A,,Clear,0,2012-11-27 09:55:00
3:15 AM,16.9,12.4,82,30.30,10.0,Calm,Calm,-,N/A,,Clear,0,2012-11-27 10:15:00
3:35 AM,17.4,12.4,81,30.29,10.0,Calm,Calm,-,N/A,,Clear,0,2012-11-27 10:35:00
3:55 AM,17.4,12.2,80,30.29,10.0,Calm,Calm,-,N/A,,Clear,0,2012-11-27 10:55:00
4:15 AM,16.0,10.8,80,30.29,10.0,Calm,Calm,-,N/A,,Clear,0,2012-11-27 11:15:00
4:35 AM,14.5,10.9,86,30.30,10.0,Calm,Calm,-,N/A,,Clear,0,2012-11-27 11:35:00
4:55 AM,15.3,11.3,84,30.30,10.0,Calm,Calm,-,N/A,,Clear,0,2012-11-27 11:55:00
5:35 AM,14.7,11.5,87,30.30,10.0,Calm,Calm,-,N/A,,Clear,0,2012-11-27 12:35:00
5:55 AM,14.4,10.2,84,30.30,10.0,Calm,Calm,-,N/A,,Clear,0,2012-11-27 12:55:00
6:15 AM,14.4,11.8,90,30.31,10.0,Calm,Calm,-,N/A,,Clear,0,2012-11-27 13:15:00
6:35 AM,14.0,10.0,84,30.31,10.0,Calm,Calm,-,N/A,,Clear,0,2012-11-27 13:35:00
6:55 AM,14.7,10.6,84,30.32,10.0,Calm,Calm,-,N/A,,Clear,0,2012-11-27 13:55:00
7:15 AM,15.1,10.8,83,30.32,10.0,Calm,Calm,-,N/A,,Clear,0,2012-11-27 14:15:00
7:35 AM,14.2,10.0,84,30.33,10.0,Calm,Calm,-,N/A,,Clear,0,2012-11-27 14:35:00
7:55 AM,13.5,10.9,90,30.34,10.0,Calm,Calm,-,N/A,,Clear,0,2012-11-27 14:55:00
8:15 AM,13.8,9.7,84,30.35,10.0,Calm,Calm,-,N/A,,Clear,0,2012-11-27 15:15:00
8:35 AM,16.2,11.3,81,30.35,10.0,Calm,Calm,-,N/A,,Clear,0,2012-11-27 15:35:00
8:55 AM,19.4,13.3,77,30.36,10.0,Calm,Calm,-,N/A,,Clear,0,2012-11-27 15:55:00
9:15 AM,21.4,14.5,75,30.36,10.0,Calm,Calm,-,N/A,,Clear,0,2012-11-27 16:15:00
9:35 AM,25.0,16.5,70,30.35,10.0,Calm,Calm,-,N/A,,Clear,0,2012-11-27 16:35:00
9:55 AM,26.8,16.9,66,30.36,10.0,Calm,Calm,-,N/A,,Clear,0,2012-11-27 16:55:00
10:15 AM,30.2,16.2,56,30.36,10.0,Calm,Calm,-,N/A,,Clear,0,2012-11-27 17:15:00
10:35 AM,32.0,15.4,51,30.35,10.0,Calm,Calm,-,N/A,,Clear,0,2012-11-27 17:35:00
10:55 AM,35.4,14.5,42,30.34,10.0,Calm,Calm,-,N/A,,Clear,0,2012-11-27 17:55:00
11:15 AM,38.5,12.4,34,30.32,10.0,Calm,Calm,-,N/A,,Clear,0,2012-11-27 18:15:00
11:35 AM,39.0,10.0,30,30.32,10.0,Calm,Calm,-,N/A,,Clear,0,2012-11-27 18:35:00
11:55 AM,41.9,9.1,26,30.30,10.0,Calm,Calm,-,N/A,,Clear,0,2012-11-27 18:55:00
12:15 PM,44.2,6.8,22,30.29,10.0,Calm,Calm,-,N/A,,Clear,0,2012-11-27 19:15:00
12:35 PM,45.9,4.5,18,30.28,10.0,West,3.5,-,N/A,,Clear,280,2012-11-27 19:35:00
12:55 PM,47.3,4.1,17,30.27,10.0,WSW,6.9,-,N/A,,Clear,250,2012-11-27 19:55:00
1:15 PM,47.3,4.1,17,30.27,10.0,NNW,6.9,-,N/A,,Clear,330,2012-11-27 20:15:00
1:35 PM,48.2,3.7,16,30.26,10.0,Calm,Calm,-,N/A,,Clear,0,2012-11-27 20:35:00
1:55 PM,49.1,3.4,15,30.25,10.0,WSW,4.6,-,N/A,,Clear,240,2012-11-27 20:55:00
2:15 PM,49.3,3.7,16,30.25,10.0,WSW,13.8,17.3,N/A,,Clear,240,2012-11-27 21:15:00
2:35 PM,49.5,4.5,16,30.26,10.0,West,11.5,-,N/A,,Clear,270,2012-11-27 21:35:00
2:55 PM,49.1,4.1,16,30.26,10.0,West,6.9,-,N/A,,Clear,270,2012-11-27 21:55:00
3:15 PM,49.1,4.5,16,30.26,10.0,WNW,8.1,-,N/A,,Clear,300,2012-11-27 22:15:00
3:35 PM,48.2,3.9,16,30.26,10.0,WNW,8.1,-,N/A,,Clear,290,2012-11-27 22:35:00
3:55 PM,47.3,4.3,17,30.26,10.0,WNW,9.2,-,N/A,,Clear,290,2012-11-27 22:55:00
4:15 PM,45.7,5.0,19,30.27,10.0,WNW,8.1,-,N/A,,Clear,290,2012-11-27 23:15:00
4:55 PM,41.5,4.6,22,30.27,10.0,WNW,9.2,-,N/A,,Clear,300,2012-11-27 23:55:00
5:15 PM,41.2,4.1,21,30.27,10.0,WNW,3.5,-,N/A,,Clear,290,2012-11-28 00:15:00
5:35 PM,39.2,5.5,25,30.29,10.0,Calm,Calm,-,N/A,,Clear,0,2012-11-28 00:35:00
5:55 PM,37.6,6.3,27,30.30,10.0,NE,3.5,-,N/A,,Clear,50,2012-11-28 00:55:00
6:15 PM,37.6,5.0,26,30.30,10.0,ENE,4.6,-,N/A,,Clear,60,2012-11-28 01:15:00
6:35 PM,36.5,6.8,29,30.31,10.0,East,5.8,-,N/A,,Clear,80,2012-11-28 01:35:00
6:55 PM,35.4,6.8,30,30.32,10.0,East,4.6,-,N/A,,Clear,80,2012-11-28 01:55:00
7:15 PM,32.7,9.0,37,30.32,10.0,ESE,6.9,-,N/A,,Clear,110,2012-11-28 02:15:00
7:35 PM,31.3,9.3,40,30.32,10.0,Calm,Calm,-,N/A,,Clear,0,2012-11-28 02:35:00
7:55 PM,30.2,10.2,43,30.33,10.0,Calm,Calm,-,N/A,,Clear,0,2012-11-28 02:55:00
8:15 PM,31.3,8.2,38,30.32,10.0,Calm,Calm,-,N/A,,Clear,0,2012-11-28 03:15:00
8:35 PM,30.7,9.7,41,30.33,10.0,East,8.1,-,N/A,,Clear,90,2012-11-28 03:35:00
8:55 PM,31.3,10.2,42,30.33,10.0,East,6.9,-,N/A,,Clear,90,2012-11-28 03:55:00
9:15 PM,30.7,10.4,43,30.34,10.0,ESE,4.6,-,N/A,,Clear,120,2012-11-28 04:15:00
9:35 PM,27.1,11.3,51,30.34,10.0,Calm,Calm,-,N/A,,Clear,0,2012-11-28 04:35:00
9:55 PM,28.2,10.2,47,30.34,10.0,Calm,Calm,-,N/A,,Clear,0,2012-11-28 04:55:00
10:15 PM,27.5,9.5,47,30.34,10.0,Calm,Calm,-,N/A,,Clear,0,2012-11-28 05:15:00
10:55 PM,27.5,10.0,48,30.34,10.0,Calm,Calm,-,N/A,,Clear,0,2012-11-28 05:55:00
11:35 PM,25.2,9.7,52,30.35,10.0,Calm,Calm,-,N/A,,Clear,0,2012-11-28 06:35:00
11:55 PM,24.3,10.0,55,30.35,10.0,Calm,Calm,-,N/A,,Clear,0,2012-11-28 06:55:00